DW0835 Weather Reports


Display with metric or nautical units.
time (UTC)temp
F
wind
direction
speed
MPH
gust
MPH
rain 1hr
in
rain 24hr
in
rain mn
in
humidity
%
barometer
mb
20190421061545 46 110 0.0 0.0 0.00 0.00 0.00 42 1011.5
20190421060047 46 110 0.0 0.0 0.00 0.00 0.00 43 1011.5
20190421054545 45 110 0.0 0.0 0.00 0.00 0.00 44 1011.5
20190421053052 45 110 0.0 0.0 0.00 0.00 0.00 45 1011.2
20190421051621 45 110 0.0 1.0 0.00 0.00 0.00 43 1011.1
20190421050031 44 110 0.0 0.0 0.00 0.00 0.00 43 1011.1
20190421044555 43 110 0.0 0.0 0.00 0.00 0.00 47 1010.9
20190421043040 42 110 0.0 0.0 0.00 0.00 0.00 49 1010.9
20190421041529 42 110 0.0 0.0 0.00 0.00 0.00 49 1010.8
20190421040033 43 110 0.0 0.0 0.00 0.00 0.00 49 1010.7
20190421034539 43 110 0.0 0.0 0.00 0.00 0.00 48 1010.9
20190421033031 43 110 0.0 0.0 0.00 0.00 0.00 46 1010.9
20190421031527 44 110 0.0 0.0 0.00 0.00 0.00 46 1010.9
20190421030030 44 110 0.0 0.0 0.00 0.00 0.00 44 1010.8
20190421024525 44 110 0.0 0.0 0.00 0.00 0.00 44 1010.9
20190421023037 45 110 0.0 0.0 0.00 0.00 0.00 44 1010.9
20190421021538 45 110 0.0 0.0 0.00 0.00 0.00 41 1010.9
20190421020038 46 110 0.0 0.0 0.00 0.00 0.00 39 1010.8
20190421014512 47 110 0.0 0.0 0.00 0.00 0.00 39 1010.4
20190421013021 47 110 0.0 0.0 0.00 0.00 0.00 36 1010.4
20190421011548 48 110 0.0 0.0 0.00 0.00 0.00 33 1010.4
20190421010014 49 110 0.0 1.0 0.00 0.00 0.00 29 1010.3
20190421004520 49 110 0.0 0.0 0.00 0.00 0.00 29 1010.0
20190421003015 50 110 0.0 1.0 0.00 0.00 0.00 28 1009.9
20190421001508 50 329 0.0 0.0 0.00 0.00 0.00 30 1009.9
20190421000012 51 329 0.0 1.0 0.00 0.00 0.00 28 1009.9
20190420234512 51 329 0.0 3.0 0.00 0.00 0.00 26 1009.8
20190420233015 51 350 0.0 3.0 0.00 0.00 0.00 26 1009.6
20190420231540 52 13 0.0 2.0 0.00 0.00 0.00 27 1009.4
20190420230008 52 360 1.0 5.0 0.00 0.00 0.00 27 1009.4
20190420224503 51 338 0.0 5.0 0.00 0.00 0.00 31 1009.5
20190420223007 51 360 0.0 5.0 0.00 0.00 0.00 33 1009.6
20190420221626 51 323 0.0 4.0 0.00 0.00 0.00 34 1009.8
20190420220125 51 296 0.0 4.0 0.00 0.00 0.00 35 1009.8
20190420214659 51 104 0.0 1.0 0.00 0.00 0.00 37 1009.9
20190420213249 50 322 0.0 3.0 0.00 0.00 0.00 37 1009.9
20190420211658 50 113 0.0 2.0 0.00 0.00 0.00 38 1009.9
20190420210155 50 114 0.0 2.0 0.00 0.00 0.00 41 1010.1
20190420204631 51 329 0.0 5.0 0.00 0.00 0.00 40 1010.3
20190420203311 52 97 0.0 7.0 0.00 0.00 0.00 37 1010.5
20190420201702 53 122 0.0 9.0 0.00 0.00 0.00 35 1010.5
20190420200158 51 346 0.0 4.0 0.00 0.00 0.00 39 1010.7
20190420194647 50 76 0.0 4.0 0.00 0.00 0.00 45 1011.0
20190420193137 50 45 0.0 7.0 0.00 0.00 0.00 47 1011.0
20190420191649 50 138 0.0 5.0 0.00 0.00 0.00 49 1011.4
20190420190125 50 48 0.0 5.0 0.00 0.00 0.00 51 1011.5
20190420184638 50 107 1.0 6.0 0.00 0.00 0.00 47 1011.6
20190420183111 50 306 0.0 7.0 0.00 0.00 0.00 46 1011.6
20190420181630 51 350 1.0 8.0 0.00 0.00 0.00 48 1011.7
20190420180206 52 92 0.0 7.0 0.00 0.00 0.00 45 1011.9
20190420174618 51 320 2.0 7.0 0.00 0.00 0.00 43 1012.0
20190420173100 50 327 1.0 9.0 0.00 0.00 0.00 52 1012.1
20190420171639 50 29 1.0 7.0 0.00 0.00 0.00 50 1012.2
20190420170116 49 63 0.0 5.0 0.00 0.00 0.00 51 1012.4
20190420164606 48 338 1.0 11.0 0.00 0.00 0.00 50 1012.5
20190420163054 48 335 4.0 10.0 0.00 0.00 0.00 49 1012.6
20190420161544 48 330 3.0 7.0 0.00 0.00 0.00 51 1012.6
20190420160048 48 360 1.0 7.0 0.00 0.00 0.00 52 1012.7
20190420154521 48 319 4.0 11.0 0.00 0.00 0.00 51 1012.7
20190420153033 48 336 1.0 7.0 0.00 0.00 0.00 50 1012.7
20190420151521 47 342 3.0 10.0 0.00 0.00 0.00 50 1012.7
20190420150007 47 355 4.0 10.0 0.00 0.00 0.00 50 1012.7
20190420144640 46 311 4.0 11.0 0.00 0.00 0.00 51 1012.7
20190420143203 45 317 3.0 10.0 0.00 0.00 0.00 55 1012.7
20190420141656 44 341 2.0 13.0 0.00 0.00 0.00 58 1012.6
20190420140152 44 298 2.0 8.0 0.00 0.00 0.00 59 1012.7
20190420134640 43 342 3.0 11.0 0.00 0.00 0.00 62 1012.6
20190420133100 42 338 2.0 6.0 0.00 0.00 0.00 66 1012.5
20190420131609 42 345 2.0 10.0 0.00 0.00 0.00 66 1012.3
20190420130056 42 340 3.0 9.0 0.00 0.00 0.00 64 1012.3
20190420124617 41 355 3.0 8.0 0.00 0.00 0.00 66 1012.2
20190420123047 41 338 3.0 8.0 0.00 0.00 0.00 66 1012.2
20190420121537 41 348 1.0 7.0 0.00 0.00 0.00 64 1012.1
20190420120038 40 355 2.0 9.0 0.00 0.00 0.00 64 1012.2
20190420114520 40 347 4.0 10.0 0.00 0.00 0.00 65 1012.1
20190420113016 40 332 2.0 7.0 0.00 0.00 0.00 66 1012.1
20190420111528 40 360 1.0 11.0 0.00 0.00 0.00 66 1012.0
20190420110021 40 326 2.0 10.0 0.00 0.00 0.00 66 1012.0
20190420104519 40 9 2.0 10.0 0.00 0.00 0.00 66 1011.9
20190420103005 40 344 3.0 8.0 0.00 0.00 0.00 64 1012.0
20190420101505 41 355 1.0 7.0 0.00 0.00 0.00 61 1012.1
20190420100004 41 331 3.0 10.0 0.00 0.00 0.00 60 1012.1
20190420094630 41 350 3.0 10.0 0.00 0.00 0.00 60 1012.1
20190420093257 41 348 3.0 10.0 0.00 0.00 0.00 59 1012.1
20190420091740 41 340 4.0 12.0 0.00 0.00 0.00 59 1012.2
20190420090219 41 345 3.0 11.0 0.00 0.00 0.00 60 1012.2
20190420084725 41 324 2.0 11.0 0.00 0.00 0.00 61 1012.2
20190420083106 41 338 2.0 9.0 0.00 0.00 0.00 60 1012.2
20190420081710 41 348 2.0 8.0 0.00 0.00 0.00 60 1012.1
20190420080129 41 318 3.0 9.0 0.00 0.00 0.00 61 1012.1
20190420074731 42 341 3.0 9.0 0.00 0.00 0.00 61 1012.2
20190420073220 42 311 4.0 12.0 0.00 0.00 0.00 60 1012.2
20190420071646 41 333 2.0 10.0 0.00 0.00 0.00 65 1012.2
20190420070119 41 21 2.0 10.0 0.00 0.00 0.00 66 1012.2
20190420064641 41 342 2.0 9.0 0.00 0.00 0.00 68 1012.2